Location: Harwich
(41.7160°N, 69.9939°W)
Time: 11:05:01
(UTC+02:00)

A-11 Canister half - Pass Details

Date: 03 March 2024
Orbit: 1513 x 1686 km, 47.2° (Epoch: 24 April)

Event Time Altitude Azimuth Distance (km) Brightness Sun altitude
Exits shadow 10:57:38 12° 295° (WNW) 3,750 10.5 -14.5°
Maximum altitude 11:07:09 85° 209° (SSW) 1,643 9.1 -12.7°
Drops below altitude 10° 11:16:53 10° 122° (ESE) 3,792 12.0 -10.9°
Sets 11:19:54 0° 122° (ESE) 4,753 12.7 -10.3°
